CZ-6A DEB

Satellite information

Favourite Embed

Satellite Type and Status

DEBRISIN ORBIT

Key statistics

Satellite CZ-6A DEB at a glance.

Uptime

1077

Days in orbit

Revolutions

≈ 14.2

Per day

Orbit

SSO

Sun Synchronous Orbit

Inclination

98.8

Latest

Satellite identification and parameters

Extended collection of information and parameters for CZ-6A DEB.

Object identification

Identified? True

Debris? True

Object name: CZ-6A DEB

International designator: 2022-151ADU

Object number (NORAD): 56596

Object ID (CCSDS): 56596

Country: PEOPLES REPUBLIC OF CHINA (PRC)

Current information (Y/N): Y

RCS size: SMALL

Orbital parameters

Period: 101.415 minutes

Inclination: 98.818 deg

SMA: 7203.816 km

Apoapsis: 850.889 km

Periapsis: 800.472 km

RAAN: 301.5628 deg

Eccentricy: 0.0034993

Argument of periapsis: 260.5353 deg

Mean anomaly: 99.1868 deg

Mean motion: 14.19903634 rev/day

Mean motion (dot): 0.00004978 rev/day2

B* drag term: 0.0023501 1/REarth

Two-line elements (TLE)

Creation date: Oct. 22, 2025, 12:06 a.m.

Reference frame: TEME

Reference center: EARTH

Epoch: Oct. 21, 2025, 11:42 a.m. UTC

TLE line 0: 0 CZ-6A DEB

TLE line 1: 1 56596U 22151ADU 25294.48777296 .00004978 00000-0 23501-2 0 9995

TLE line 2: 2 56596 98.8180 301.5628 0034993 260.5353 99.1868 14.19903634140303

Live tracking on map

Real-time ground track for satellite CZ-6A DEB.

In-orbit conjunctions

A list of the most updated potential collisions computed for object CZ-6A DEB.

Target Orbit TCA Probability of collision Miss distance Type
SL-3 R/B LEO 2025-01-14 21:27:52 0.0001985912 96.0 (m) ROCKET BODY
METEOR 2-7 LEO 2024-11-21 20:00:23 0.0001529224 701.0 (m) PAYLOAD

Associated space launch

Chinese satellite reported for atmospheric/ocean/environmental/spatial parameter research purposes, details TBD.

CZ-6A DEB was lifted into orbit during the mission ‘Long March 6A | Yunhai 3’, on board a Long March 6A space rocket.

The launch took place on Nov. 11, 2022, 10:52 p.m. from Launch Complex 9A.

For more information about the launch, click the button.

Launch to space Long March 6A | Yunhai 3
Long March 6A | Yunhai 3

Agency: N/A

Status: Launch Successful

Launch date: Nov. 11, 2022, 10:52 p.m. UTC

Rocket: Long March 6A

Launch pad: Launch Complex 9A

Location: Taiyuan Satellite Launch Center, People's Republic of China

...

Latest news about this satellite

There are no fresh news available about this satellite. Check back as we update our databases every day.


Newsletter sign-up

Weekly statistics, charts and insights to help you stay on top of the space industry.